Location: Elstree
(51.6403°N, 0.2969°W)
Time: 15:15:15
(UTC+00:00)

SJ 16-02 - Pass Details

Date: 21 June 2021
Orbit: 606 x 616 km, 75.0° (Epoch: 29 July)

Event Time Altitude Azimuth Distance (km) Brightness Sun altitude
Rises 21:44:15 0° 345° (NNW) 2,879 6.5 -9.0°
Reaches altitude 10° 21:47:16 10° 7° (N) 1,969 4.8 -9.2°
Maximum altitude 21:50:04 16° 47° (NE) 1,585 3.6 -9.4°
Drops below altitude 10° 21:52:52 10° 87° (E) 1,961 3.7 -9.7°
Enters shadow 21:54:55 - 103° (ESE) 2,554 4.1 -9.8°
